SCP
-0 -0 -0 -0 -0 0 0 0 0 0 -0 -0 0 0 0 0 0 0 0 0 0 0 0 0 0 0 0 0 0 0 0 0 0 0 0 0 0 0 0 0 0 0 0
-0 -0 -0 -0 -0 0 0 0 0 0 0 -0 0 0 0 0 0 0 0 0 0 0 0 0 0 0 0 0 0 0 0 0 0 0 0 0 0 0 0 0 0 0 0
-0 -0 -0 -0 -0 -0 0 0 0 0 -0 0 0 0 0 0 0 0 0 0 0 0 0 0 0 0 0 0 0 0 0 0 0 0 0 0 0 0 0 0 0 0 0
-0 -0 -0 -0 -0 -0 0 0 0 0 -0 0 0 0 0 0 0 0 0 0 0 0 0 0 0 0 0 0 0 0 0 0 0 0 0 0 0 0 0 0 0 0 0
0 0 -0 0 0 0 0 0 0 0 0 0 0 0 0 0 0 0 0 0 0 0 0 0 0 0 0 0 0 0 0 0 0 0 0 0 0 0 0 0 0 0 0
0 0 0 0 0 0 0 0 0 0 0 0 0 0 0 -0 0 0 0 0 0 0 0 0 0 0 0 0 0 0 0 0 0 0 0 0 0 0 0 0 0 0 0
0 0 0 0 0 0 0 0 0 0 0 0 0 0 0 0 0 0 0 0 0 0 0 0 0 0 0 0 0 0 0 0 0 0 0 0 0 0 0 0 0 0 0
1 1 1 0 0 0 0 0 0 0 -0 0 0 0 0 0 -0 -0 0 0 0 0 0 0 0 0 0 0 0 0 0 0 0 0 0 0 0 0 0 0 0 0 0
1 1 0 0 0 0 0 0 0 0 0 0 0 0 0 0 0 0 -0 0 0 0 0 0 0 -0 0 0 0 0 0 0 0 0 0 0 0 0 0 0 0 0 0
1 1 1 0 0 0 0 0 0 0 0 0 0 0 0 0 -0 0 -0 -0 0 -0 0 0 0 0 0 0 0 0 0 0 0 0 0 0 0 0 0 0 0 0 0
1 1 1 1 1 1 0 1 0 0 0 0 0 0 0 0 0 -0 -0 0 0 0 0 0 0 0 0 0 0 0 0 0 0 0 0 0 0 0 0 0 0 0 0
1 1 1 1 1 1 1 1 0 0 0 0 0 0 0 0 0 0 -0 -0 0 0 0 0 0 0 0 0 0 0 0 0 0 0 0 0 0 0 0 0 0 0 0
1 1 1 1 1 1 1 1 1 1 1 0 0 0 0 1 0 0 0 0 0 0 0 0 0 0 0 0 0 0 0 0 0 0 0 0 0 0 0 0 0 0 0
1 1 1 1 1 1 1 1 1 1 1 0 0 1 1 1 0 0 0 0 0 0 0 0 0 0 0 0 0 0 0 0 0 0 0 0 0 0 0 0 0 0 0
1 2 2 1 1 2 1 1 0 1 0 1 1 1 1 1 0 0 0 0 0 0 0 0 0 0 0 0 0 0 0 0 0 0 0 0 0 0 0 0 0 0 0
3 6 5 3 3 2 1 0 0 0 0 0 0 0 0 0 0 0 0 0 0 0 0 0 0 0 0 0 0 0 0 0 0 0 0 0 0 0 0 0 0 0 0
3 1 1 1 1 0 0 0 0 0 0 0 0 0 0 0 0 0 0 0 0 0 0 0 0 0 0 0 0 0 0 0 0 0 0 0 0 0 0 0 0 0 0
0 1 2 2 1 0 0 0 -0 -0 -0 0 0 0 0 0 0 0 0 0 0 0 0 0 0 0 0 0 0 0 0 0 0 0 0 0 0 0 0 0 0 0 0
0 0 0 0 0 0 0 0 0 0 0 0 0 0 0 0 0 0 0 0 0 0 0 0 0 0 0 0 0 0 0 0 0 0 0 0 0 0 0 0 0 0 0
0 0 0 0 0 0 0 0 0 0 0 0 0 0 0 0 0 0 0 0 0 0 0 0 0 0 0 0 0 0 0 0 0 0 0 0 0 0 0 0 0 0 0
-0 -0 0 -0 0 0 0 0 0 0 0 0 0 0 0 0 0 0 0 0 0 0 0 0 0 0 0 0 0 0 0 0 0 0 0 0 0 0 0 0 0 0 0
-0 -0 -0 -0 0 0 0 0 0 0 0 0 0 0 0 0 0 0 0 0 0 0 0 0 0 0 0 0 0 0 0 0 0 0 0 0 0 0 0 0 0 0 0
0 0 0 0 0 0 0 0 0 0 0 0 0 0 0 0 0 0 0 0 0 0 0 0 0 0 0 0 0 0 0 0 0 0 0 0 0 0 0 0 0 0 0
0 0 0 0 0 0 0 0 0 0 0 0 0 0 0 0 0 0 0 0 0 0 0 0 0 0 0 0 0 0 0 0 0 0 0 0 0 0 0 0 0 0 0
0 0 0 0 0 0 0 0 0 0 0 0 0 0 0 0 0 0 0 0 0 0 0 0 0 0 0 0 0 0 0 0 0 0 0 0 0 0 0 0 0 0 0
0 0 0 0 0 0 0 0 0 0 0 0 0 0 0 0 0 0 0 0 0 0 0 0 0 0 0 0 0 0 0 0 0 0 0 0 0 0 0 0 0 0 0
Wind_Speed_500mb
13 13 13 14 7 9 15 14 16 17 17 15 16 11 8 7 7 7 9 6 5 9 11 11 11 12 15 17 18 22 26 25 22 34 33 29 22 19 17 15 12 12 15
17 14 14 14 15 18 17 18 17 17 17 20 13 10 10 7 3 4 6 4 3 4 6 7 8 7 6 8 13 19 20 22 21 31 38 32 27 22 18 19 22 21 18
19 17 18 20 20 18 16 15 17 17 18 14 13 10 7 7 7 6 7 6 4 2 2 4 5 4 2 3 6 11 17 16 17 23 39 37 32 28 27 26 24 23 23
20 22 23 25 22 18 17 16 15 16 16 14 12 11 8 6 6 8 7 4 3 1 1 2 1 3 2 4 7 12 15 17 21 26 36 39 37 34 32 30 28 24 25
25 28 25 27 23 19 18 18 16 17 14 13 12 9 8 8 7 6 7 5 5 4 2 3 4 3 4 9 12 14 17 19 21 30 37 42 41 40 37 33 30 32 25
33 31 30 29 28 22 20 19 16 15 16 18 18 12 9 8 8 7 7 6 5 4 4 3 2 2 1 3 7 13 21 23 22 29 37 43 42 42 38 38 30 32 24
40 35 33 33 30 24 23 21 15 14 21 21 19 16 12 13 9 6 5 8 7 5 1 1 2 3 1 3 5 8 10 15 22 24 31 36 41 42 39 42 38 33 20
39 35 36 36 33 29 26 22 17 21 24 22 18 15 13 13 15 12 11 9 9 8 8 7 7 7 6 4 2 4 7 10 15 21 26 27 32 34 35 39 38 38 29
42 38 41 39 38 35 31 28 23 25 24 24 20 18 17 18 18 18 15 14 15 11 10 11 11 10 11 9 5 6 6 8 13 18 24 28 28 30 33 39 42 33 23
39 43 44 44 44 41 36 33 29 26 23 21 17 17 15 17 22 25 26 21 22 14 17 15 13 15 14 13 10 9 7 10 9 15 20 24 30 32 34 36 32 34 29
41 45 47 47 46 44 39 35 32 29 27 25 21 20 23 22 23 25 30 28 21 20 20 18 16 16 16 16 16 13 14 15 13 9 11 17 23 27 34 36 37 35 32
38 45 50 49 50 48 44 37 34 34 33 29 25 26 27 26 28 29 32 35 33 27 23 20 24 23 22 21 21 23 21 19 15 16 16 18 18 20 25 30 37 36 26
37 47 51 50 46 48 50 46 39 39 34 27 30 28 30 32 29 32 33 38 42 44 31 32 36 34 33 28 28 27 27 23 21 23 24 24 25 26 31 36 36 39 43
33 36 37 41 49 41 42 44 43 38 32 30 30 33 29 26 28 29 31 30 36 46 47 49 46 44 41 38 38 38 35 31 27 28 27 26 26 28 29 28 28 27 27
35 36 37 38 42 37 42 43 36 33 35 32 33 33 31 33 37 40 38 36 37 41 45 50 51 50 47 44 43 48 47 43 45 45 38 34 34 35 35 35 34 32 33
40 42 44 46 40 41 40 51 49 47 45 41 39 40 42 39 39 37 39 41 36 40 44 48 56 57 58 53 51 56 54 54 51 45 42 37 40 42 39 40 40 40 39
40 45 43 34 31 25 19 22 24 21 26 28 23 28 31 33 38 40 38 37 38 42 46 49 49 52 54 57 58 62 50 63 64 59 53 44 44 45 48 47 47 47 46
12 25 28 27 25 20 13 9 9 9 8 13 18 21 20 17 18 19 21 22 26 28 33 39 48 49 51 52 48 56 62 66 60 62 58 49 45 41 46 50 52 51 50
16 17 15 13 16 21 12 16 11 9 10 13 13 17 14 12 12 17 20 19 16 17 26 28 30 37 42 42 39 33 38 44 49 60 61 57 63 55 47 53 48 52 50
13 15 15 13 10 9 10 11 7 9 11 12 10 9 12 12 10 12 15 12 14 20 24 22 20 22 26 21 22 21 25 32 34 43 53 61 58 54 59 55 49 46 53
4 8 10 11 10 9 9 9 10 12 11 9 10 11 18 18 15 17 14 12 15 17 22 15 12 15 19 19 20 20 21 24 27 31 36 43 58 72 80 69 70 56 61
13 11 10 8 8 8 6 7 11 14 11 6 3 13 18 9 11 11 12 10 11 12 13 13 16 21 26 22 20 19 20 21 21 23 27 31 42 55 68 77 76 69 68
15 16 15 13 13 19 15 14 14 10 6 4 2 6 9 9 9 10 13 12 11 9 8 8 7 8 9 9 15 19 20 23 24 35 36 34 32 38 43 55 79 78 71
23 22 22 22 19 21 18 13 8 13 11 7 6 6 9 9 8 9 7 8 10 11 11 10 9 11 11 9 9 8 15 22 27 27 26 30 38 40 46 50 56 68 85
23 24 22 21 18 15 11 11 15 14 16 15 11 12 11 12 13 14 15 15 13 12 12 11 12 14 16 17 15 17 20 22 25 29 30 29 29 36 42 47 47 55 64
13 18 11 7 7 17 21 23 21 20 18 18 16 16 14 15 16 16 17 17 15 14 13 11 13 18 18 20 23 24 27 29 31 31 31 22 26 26 27 30 34 42 56
Wind_Direction_500mb
188 172 161 148 127 149 147 142 154 161 162 157 170 190 196 200 216 227 227 251 279 283 298 298 294 271 245 239 229 214 203 210 212 196 190 179 174 168 169 173 171 177 178
181 159 159 148 133 146 158 153 157 154 163 169 168 162 155 168 186 197 180 173 192 248 295 321 320 310 265 228 211 197 205 214 208 199 187 183 179 179 178 172 162 162 164
159 165 163 168 152 162 168 160 159 156 157 158 150 138 130 124 112 118 141 158 165 193 287 316 327 332 295 193 175 177 198 192 199 206 194 190 185 180 179 173 169 167 169
166 172 174 170 169 164 166 159 164 162 166 158 156 158 144 114 112 121 114 108 118 131 301 328 264 222 231 169 183 200 201 199 203 199 200 196 194 187 188 184 175 176 168
178 181 177 175 174 171 168 168 167 173 176 172 165 179 175 144 150 152 119 85 61 55 36 343 331 311 241 209 186 209 212 205 200 203 205 202 199 196 194 191 186 173 167
186 187 188 183 179 179 174 171 172 180 193 181 168 180 211 198 216 183 155 136 108 72 64 38 19 19 253 214 216 222 215 214 218 220 211 209 210 207 200 192 183 179 173
193 190 190 186 184 177 175 172 172 205 210 194 182 174 192 216 220 216 193 175 168 200 273 5 52 297 328 244 210 215 219 228 224 226 221 222 216 215 210 198 197 183 185
195 193 188 191 182 182 176 175 185 209 217 205 196 201 216 220 219 216 218 221 220 222 227 252 231 255 235 216 196 231 235 229 220 213 220 224 227 223 217 215 207 192 192
210 211 198 193 189 186 183 181 189 205 214 215 209 219 242 237 237 232 230 242 237 241 253 259 254 245 253 241 198 212 224 252 240 234 221 220 224 223 219 212 207 197 204
220 219 207 199 193 194 189 189 189 206 211 221 218 227 233 233 244 242 240 248 248 240 258 262 256 249 255 243 223 228 238 244 231 241 235 229 223 221 216 214 211 204 212
228 218 206 202 201 195 196 193 192 204 215 215 222 231 238 243 243 246 246 243 247 254 237 252 240 253 253 252 253 240 222 235 245 238 224 228 222 220 215 216 217 217 224
225 213 209 207 205 203 205 206 205 209 220 221 228 237 243 244 247 252 251 253 241 238 247 247 237 255 253 251 244 243 237 232 215 218 223 225 223 228 221 225 226 229 231
227 217 212 210 211 212 215 216 214 218 219 231 232 239 245 248 248 260 253 256 250 250 244 244 251 253 256 254 250 247 241 232 221 223 225 224 222 220 215 225 231 233 237
235 223 216 216 213 215 218 218 221 227 229 229 238 243 253 250 256 258 266 270 263 256 255 258 257 254 253 253 252 246 241 234 230 233 229 228 224 217 218 220 225 235 229
240 225 219 211 218 221 226 226 223 231 233 243 253 244 247 256 264 267 262 264 262 268 260 256 260 258 255 251 243 250 242 238 235 225 222 229 226 226 227 226 228 229 230
226 220 210 207 208 219 237 244 245 251 257 260 255 251 259 260 264 272 277 277 264 257 257 260 264 262 258 252 247 253 252 244 237 232 236 232 234 236 237 238 236 235 233
219 221 215 209 207 214 229 268 269 249 246 242 251 268 273 268 279 282 280 277 274 264 258 266 269 270 270 262 261 254 245 253 249 248 243 232 237 239 243 241 241 243 240
185 176 172 176 181 192 219 240 238 288 316 293 296 264 271 277 281 284 283 287 285 278 278 269 267 268 274 265 270 262 263 264 257 251 240 237 241 242 248 243 240 238 241
99 108 125 148 178 231 203 189 192 210 212 231 245 306 315 285 292 291 292 299 291 296 296 289 287 281 277 279 280 279 273 269 266 256 253 246 241 236 237 247 241 241 243
91 85 88 78 87 123 141 141 172 207 222 233 237 235 270 314 309 297 307 308 319 315 308 299 294 291 290 285 291 292 292 277 276 272 258 254 246 220 243 236 241 246 250
98 109 130 146 161 178 182 184 199 220 226 237 249 242 258 276 275 287 300 311 313 317 313 319 322 308 298 294 287 291 287 288 287 284 277 270 252 241 231 232 235 230 252
235 242 236 226 220 225 220 210 235 237 240 249 269 300 291 339 293 291 299 311 310 300 291 297 317 323 320 322 317 314 313 312 307 300 293 287 278 265 248 240 240 232 250
282 285 284 272 253 248 235 229 234 224 201 209 278 305 358 7 356 356 353 341 334 329 292 329 329 303 295 301 317 322 322 320 311 314 312 308 287 274 261 253 247 247 255
270 274 268 270 256 247 242 226 189 167 148 140 113 95 74 72 51 31 40 42 41 43 43 40 33 23 1 4 356 349 279 279 282 276 261 283 279 276 281 279 273 259 253
251 250 255 253 247 215 196 154 139 133 119 95 88 79 64 56 52 42 31 22 23 22 20 26 26 27 29 23 10 350 342 330 320 308 299 293 284 275 275 269 267 270 271
235 235 247 250 157 144 136 134 129 131 110 102 84 79 75 64 58 51 47 39 40 44 47 33 21 27 26 6 359 354 350 349 353 353 353 338 316 312 319 312 300 288 283
Wind_Speed_850mb
13 13 13 14 7 9 15 14 16 17 17 15 16 11 8 7 7 7 9 6 5 9 11 11 11 12 15 17 18 22 26 25 22 34 33 29 22 19 17 15 12 12 15
17 14 14 14 15 18 17 18 17 17 17 20 13 10 10 7 3 4 6 4 3 4 6 7 8 7 6 8 13 19 20 22 21 31 38 32 27 22 18 19 22 21 18
19 17 18 20 20 18 16 15 17 17 18 14 13 10 7 7 7 6 7 6 4 2 2 4 5 4 2 3 6 11 17 16 17 23 39 37 32 28 27 26 24 23 23
20 22 23 25 22 18 17 16 15 16 16 14 12 11 8 6 6 8 7 4 3 1 1 2 1 3 2 4 7 12 15 17 21 26 36 39 37 34 32 30 28 24 25
25 28 25 27 23 19 18 18 16 17 14 13 12 9 8 8 7 6 7 5 5 4 2 3 4 3 4 9 12 14 17 19 21 30 37 42 41 40 37 33 30 32 25
33 31 30 29 28 22 20 19 16 15 16 18 18 12 9 8 8 7 7 6 5 4 4 3 2 2 1 3 7 13 21 23 22 29 37 43 42 42 38 38 30 32 24
40 35 33 33 30 24 23 21 15 14 21 21 19 16 12 13 9 6 5 8 7 5 1 1 2 3 1 3 5 8 10 15 22 24 31 36 41 42 39 42 38 33 20
39 35 36 36 33 29 26 22 17 21 24 22 18 15 13 13 15 12 11 9 9 8 8 7 7 7 6 4 2 4 7 10 15 21 26 27 32 34 35 39 38 38 29
42 38 41 39 38 35 31 28 23 25 24 24 20 18 17 18 18 18 15 14 15 11 10 11 11 10 11 9 5 6 6 8 13 18 24 28 28 30 33 39 42 33 23
39 43 44 44 44 41 36 33 29 26 23 21 17 17 15 17 22 25 26 21 22 14 17 15 13 15 14 13 10 9 7 10 9 15 20 24 30 32 34 36 32 34 29
41 45 47 47 46 44 39 35 32 29 27 25 21 20 23 22 23 25 30 28 21 20 20 18 16 16 16 16 16 13 14 15 13 9 11 17 23 27 34 36 37 35 32
38 45 50 49 50 48 44 37 34 34 33 29 25 26 27 26 28 29 32 35 33 27 23 20 24 23 22 21 21 23 21 19 15 16 16 18 18 20 25 30 37 36 26
37 47 51 50 46 48 50 46 39 39 34 27 30 28 30 32 29 32 33 38 42 44 31 32 36 34 33 28 28 27 27 23 21 23 24 24 25 26 31 36 36 39 43
33 36 37 41 49 41 42 44 43 38 32 30 30 33 29 26 28 29 31 30 36 46 47 49 46 44 41 38 38 38 35 31 27 28 27 26 26 28 29 28 28 27 27
35 36 37 38 42 37 42 43 36 33 35 32 33 33 31 33 37 40 38 36 37 41 45 50 51 50 47 44 43 48 47 43 45 45 38 34 34 35 35 35 34 32 33
40 42 44 46 40 41 40 51 49 47 45 41 39 40 42 39 39 37 39 41 36 40 44 48 56 57 58 53 51 56 54 54 51 45 42 37 40 42 39 40 40 40 39
40 45 43 34 31 25 19 22 24 21 26 28 23 28 31 33 38 40 38 37 38 42 46 49 49 52 54 57 58 62 50 63 64 59 53 44 44 45 48 47 47 47 46
12 25 28 27 25 20 13 9 9 9 8 13 18 21 20 17 18 19 21 22 26 28 33 39 48 49 51 52 48 56 62 66 60 62 58 49 45 41 46 50 52 51 50
16 17 15 13 16 21 12 16 11 9 10 13 13 17 14 12 12 17 20 19 16 17 26 28 30 37 42 42 39 33 38 44 49 60 61 57 63 55 47 53 48 52 50
13 15 15 13 10 9 10 11 7 9 11 12 10 9 12 12 10 12 15 12 14 20 24 22 20 22 26 21 22 21 25 32 34 43 53 61 58 54 59 55 49 46 53
4 8 10 11 10 9 9 9 10 12 11 9 10 11 18 18 15 17 14 12 15 17 22 15 12 15 19 19 20 20 21 24 27 31 36 43 58 72 80 69 70 56 61
13 11 10 8 8 8 6 7 11 14 11 6 3 13 18 9 11 11 12 10 11 12 13 13 16 21 26 22 20 19 20 21 21 23 27 31 42 55 68 77 76 69 68
15 16 15 13 13 19 15 14 14 10 6 4 2 6 9 9 9 10 13 12 11 9 8 8 7 8 9 9 15 19 20 23 24 35 36 34 32 38 43 55 79 78 71
23 22 22 22 19 21 18 13 8 13 11 7 6 6 9 9 8 9 7 8 10 11 11 10 9 11 11 9 9 8 15 22 27 27 26 30 38 40 46 50 56 68 85
23 24 22 21 18 15 11 11 15 14 16 15 11 12 11 12 13 14 15 15 13 12 12 11 12 14 16 17 15 17 20 22 25 29 30 29 29 36 42 47 47 55 64
13 18 11 7 7 17 21 23 21 20 18 18 16 16 14 15 16 16 17 17 15 14 13 11 13 18 18 20 23 24 27 29 31 31 31 22 26 26 27 30 34 42 56
Wind_Direction_850mb
188 172 161 148 127 149 147 142 154 161 162 157 170 190 196 200 216 227 227 251 279 283 298 298 294 271 245 239 229 214 203 210 212 196 190 179 174 168 169 173 171 177 178
181 159 159 148 133 146 158 153 157 154 163 169 168 162 155 168 186 197 180 173 192 248 295 321 320 310 265 228 211 197 205 214 208 199 187 183 179 179 178 172 162 162 164
159 165 163 168 152 162 168 160 159 156 157 158 150 138 130 124 112 118 141 158 165 193 287 316 327 332 295 193 175 177 198 192 199 206 194 190 185 180 179 173 169 167 169
166 172 174 170 169 164 166 159 164 162 166 158 156 158 144 114 112 121 114 108 118 131 301 328 264 222 231 169 183 200 201 199 203 199 200 196 194 187 188 184 175 176 168
178 181 177 175 174 171 168 168 167 173 176 172 165 179 175 144 150 152 119 85 61 55 36 343 331 311 241 209 186 209 212 205 200 203 205 202 199 196 194 191 186 173 167
186 187 188 183 179 179 174 171 172 180 193 181 168 180 211 198 216 183 155 136 108 72 64 38 19 19 253 214 216 222 215 214 218 220 211 209 210 207 200 192 183 179 173
193 190 190 186 184 177 175 172 172 205 210 194 182 174 192 216 220 216 193 175 168 200 273 5 52 297 328 244 210 215 219 228 224 226 221 222 216 215 210 198 197 183 185
195 193 188 191 182 182 176 175 185 209 217 205 196 201 216 220 219 216 218 221 220 222 227 252 231 255 235 216 196 231 235 229 220 213 220 224 227 223 217 215 207 192 192
210 211 198 193 189 186 183 181 189 205 214 215 209 219 242 237 237 232 230 242 237 241 253 259 254 245 253 241 198 212 224 252 240 234 221 220 224 223 219 212 207 197 204
220 219 207 199 193 194 189 189 189 206 211 221 218 227 233 233 244 242 240 248 248 240 258 262 256 249 255 243 223 228 238 244 231 241 235 229 223 221 216 214 211 204 212
228 218 206 202 201 195 196 193 192 204 215 215 222 231 238 243 243 246 246 243 247 254 237 252 240 253 253 252 253 240 222 235 245 238 224 228 222 220 215 216 217 217 224
225 213 209 207 205 203 205 206 205 209 220 221 228 237 243 244 247 252 251 253 241 238 247 247 237 255 253 251 244 243 237 232 215 218 223 225 223 228 221 225 226 229 231
227 217 212 210 211 212 215 216 214 218 219 231 232 239 245 248 248 260 253 256 250 250 244 244 251 253 256 254 250 247 241 232 221 223 225 224 222 220 215 225 231 233 237
235 223 216 216 213 215 218 218 221 227 229 229 238 243 253 250 256 258 266 270 263 256 255 258 257 254 253 253 252 246 241 234 230 233 229 228 224 217 218 220 225 235 229
240 225 219 211 218 221 226 226 223 231 233 243 253 244 247 256 264 267 262 264 262 268 260 256 260 258 255 251 243 250 242 238 235 225 222 229 226 226 227 226 228 229 230
226 220 210 207 208 219 237 244 245 251 257 260 255 251 259 260 264 272 277 277 264 257 257 260 264 262 258 252 247 253 252 244 237 232 236 232 234 236 237 238 236 235 233
219 221 215 209 207 214 229 268 269 249 246 242 251 268 273 268 279 282 280 277 274 264 258 266 269 270 270 262 261 254 245 253 249 248 243 232 237 239 243 241 241 243 240
185 176 172 176 181 192 219 240 238 288 316 293 296 264 271 277 281 284 283 287 285 278 278 269 267 268 274 265 270 262 263 264 257 251 240 237 241 242 248 243 240 238 241
99 108 125 148 178 231 203 189 192 210 212 231 245 306 315 285 292 291 292 299 291 296 296 289 287 281 277 279 280 279 273 269 266 256 253 246 241 236 237 247 241 241 243
91 85 88 78 87 123 141 141 172 207 222 233 237 235 270 314 309 297 307 308 319 315 308 299 294 291 290 285 291 292 292 277 276 272 258 254 246 220 243 236 241 246 250
98 109 130 146 161 178 182 184 199 220 226 237 249 242 258 276 275 287 300 311 313 317 313 319 322 308 298 294 287 291 287 288 287 284 277 270 252 241 231 232 235 230 252
235 242 236 226 220 225 220 210 235 237 240 249 269 300 291 339 293 291 299 311 310 300 291 297 317 323 320 322 317 314 313 312 307 300 293 287 278 265 248 240 240 232 250
282 285 284 272 253 248 235 229 234 224 201 209 278 305 358 7 356 356 353 341 334 329 292 329 329 303 295 301 317 322 322 320 311 314 312 308 287 274 261 253 247 247 255
270 274 268 270 256 247 242 226 189 167 148 140 113 95 74 72 51 31 40 42 41 43 43 40 33 23 1 4 356 349 279 279 282 276 261 283 279 276 281 279 273 259 253
251 250 255 253 247 215 196 154 139 133 119 95 88 79 64 56 52 42 31 22 23 22 20 26 26 27 29 23 10 350 342 330 320 308 299 293 284 275 275 269 267 270 271
235 235 247 250 157 144 136 134 129 131 110 102 84 79 75 64 58 51 47 39 40 44 47 33 21 27 26 6 359 354 350 349 353 353 353 338 316 312 319 312 300 288 283